Regional Weather Roundup
Issued by NWS

Home | Current Version | Previous Version | Graphics & Text | Print | Product List | Glossary Off
Versions: 1 2 3 4 5 6 7 8 9 10 11 12 13 14 15 16 17 18 19 20 21 22 23 24 25 26 27 28 29 30 31 32 33 34 35 36 37 38 39 40 41 42 43 44 45 46 47 48 49 50

000
ASUS43 KMKX 210100
RWRWI

WISCONSIN REGIONAL WEATHER ROUNDUP
NATIONAL WEATHER SERVICE MILWAUKEE/SULLIVAN WI
800 PM CDT MON APR 20 2015

NOTE: "FAIR" INDICATES FEW OR NO CLOUDS BELOW 12,000 FEET WITH NO
SIGNIFICANT WEATHER AND/OR OBSTRUCTIONS TO VISIBILITY.

WIZ001-002-006>008-014>016-023>028-210200-
NORTHWEST WISCONSIN

CITY           SKY/WX    TMP DP  RH WIND       PRES   REMARKS
SUPERIOR ARPT  CLOUDY    36  28  75 W17       29.42F WCI  25
ASHLAND        CLOUDY    36  28  73 W10G23    29.39R WCI  28
HAYWARD        LGT SNOW  36  26  67 W10G22    29.42R WCI  28
SIREN          FLURRIES  36  30  79 NW14G21   29.47R WCI  27
CUMBERLAND     FLURRIES  36  27  69 W14       29.45R WCI  27
RICE LAKE      CLOUDY    38  27  66 W8        29.47S WCI  32
CHETEK         CLOUDY    38  27  65 W10G16    29.46S WCI  30
LADYSMITH      CLOUDY    38  29  69 W16G28    29.44S WCI  29
EAU CLAIRE     NOT AVBL
MENOMONIE      CLOUDY    40  27  59 W9        29.48F WCI  34
NEW RICHMOND   CLOUDY    39  28  63 W18G26    29.48S WCI  30
OSCEOLA        CLOUDY    40  29  66 W15G26    29.52R WCI  31
$$

WIZ003>005-009-010-017-018-210200-
NORTH CENTRAL WISCONSIN

CITY           SKY/WX    TMP DP  RH WIND       PRES   REMARKS
MANITOWISH WTR CLOUDY    34  29  80 W14G22    29.35R WCI  25
ARBOR VITAE    CLOUDY    37  30  78 W12G20    29.35S WCI  29
WOODRUFF       CLOUDY    37  30  78 W12G20    29.35S WCI  29
RHINELANDER    LGT SNOW  34  30  85 W16       29.37R FOG     WCI  24
EAGLE RIVER    CLOUDY    35  29  81 W12       29.34R WCI  26
LAND O LAKES   LGT SNOW  35  32  88 W7        29.34R WCI  29
PHILLIPS       CLOUDY    36  28  74 W7        29.38R WCI  30
TOMAHAWK       CLOUDY    36  28  75 W14G20    29.39R WCI  27
MEDFORD        CLOUDY    37  28  71 W14G22    29.41S WCI  28
MERRILL        CLOUDY    37  30  74 W13       29.40R WCI  29
$$

WIZ029-030-035-036-043>047-210200-
CENTRAL WISCONSIN

CITY           SKY/WX    TMP DP  RH WIND       PRES   REMARKS
WAUSAU         CLOUDY    38  28  67 W16G23    29.41R WCI  29
MOSINEE        NOT AVBL
MARSHFIELD     CLOUDY    39  28  64 W16G22    29.44S WCI  30
STEVENS POINT  CLOUDY    37  28  69 W13G18    29.45S WCI  28
WAUPACA        CLOUDY    41  31  66 W13G20    29.47R
WAUTOMA        NOT AVBL
WISC RAPIDS    CLOUDY    40  28  62 W7        29.48R
CAMP DOUGLAS   NOT AVBL
$$

WIZ011>013-019>022-031-037>040-048>050-210200-
NORTHEAST WISCONSIN

CITY           SKY/WX    TMP DP  RH WIND       PRES   REMARKS
ANTIGO         CLOUDY    35  30  81 W17       29.39R WCI  25
SHAWANO        CLOUDY    41  32  70 W13G22    29.43R
OCONTO         CLOUDY    40  33  76 W14G25    29.40R WCI  33
STURGEON BAY   CLOUDY    41  30  65 W16G26    29.41R
GREEN BAY      CLOUDY    41  34  76 W15       29.45R
MANITOWOC      NOT AVBL
APPLETON       CLOUDY    39  30  70 W18G25    29.46R WCI  30
CLINTONVILLE   CLOUDY    39  32  75 W12G17    29.44R WCI  32
OSHKOSH        CLOUDY    41  31  67 W8G20     29.47R
$$

WIZ032>034-041-042-053>061-210200-
SOUTHWEST WISCONSIN

CITY           SKY/WX    TMP DP  RH WIND       PRES   REMARKS
LA CROSSE      CLOUDY    44  28  53 W15G24    29.54R
SPARTA         CLOUDY    42  28  57 W10G20    29.51F
VIROQUA        CLOUDY    40  30  68 W13       29.53S WCI  32
BOSCOBEL       CLOUDY    45  28  51 W10G24    29.58R
PRAIRIE DU CHI CLOUDY    43  29  58 W16G22    29.59S
PLATTEVILLE    CLOUDY    41  35  77 W20G25    29.58S
$$

WIZ056-057-062-063-064-067-068-210200-
SOUTH CENTRAL WISCONSIN

CITY           SKY/WX    TMP DP  RH WIND       PRES   REMARKS
REEDSBURG      CLOUDY    41  30  64 W12G21    29.52R
BARABOO/DELLS  CLOUDY    40  30  67 W6        29.52R
LONE ROCK      NOT AVBL
MINERAL POINT  CLOUDY    43  32  65 W18G30    29.55S
MADISON        CLOUDY    43  30  60 VRB6      29.53R
MIDDLETON      CLOUDY    44  30  58 W13       29.53S
WATERTOWN      CLOUDY    41  31  66 W12       29.52R
MONROE         CLOUDY    43  32  65 W20G31    29.56S
JANESVILLE     MOCLDY    45  30  57 W16G22    29.55S
$$

WIZ051-052-058>065-066-070>072-210200-
SOUTHEAST WISCONSIN

CITY           SKY/WX    TMP DP  RH WIND       PRES   REMARKS
MILWAUKEE      CLOUDY    44  30  57 W15G25    29.53R
WAUKESHA       CLOUDY    39  30  70 W17G29    29.53  WCI  30
MILWAUKEE/TIMM CLOUDY    43  30  61 W14G20    29.52R
RACINE         CLOUDY    44  31  60 W15G25    29.54R
BURLINGTON     PTCLDY    41  29  63 W16G30    29.54R
KENOSHA        MOCLDY    43  30  60 W22G31    29.54R
FOND DU LAC    CLOUDY    41  31  67 W13       29.49R
SHEBOYGAN      CLOUDY    41  32  70 W20G25    29.47R
WEST BEND      CLOUDY    41  30  65 W15       29.49R
JUNEAU         CLOUDY    40  31  68 W13G23    29.52R WCI  33
$$

LSZ147-162-210200-
LAKE SUPERIOR

STATION/POSITION TIME  TEMP    WIND        PRES    WAVE
                       AIR SEA DIR/SP/G            HT/PER
                 (UTC) (F)     (DEG/KT/KT) (MB)    (FT/S)
DEVILS ISLAND    0000   36     270/ 23/ 27  994.5R
PORT WING        0040   37     270/ 15/ 21  995.9R
SAXON HARBOR     0000   39     270/ 11/ 19  994.9
$$

LMZ867-665-643>646-210200-
LAKE MICHIGAN

STATION/POSITION TIME  TEMP    WIND        PRES    WAVE
                       AIR SEA DIR/SP/G            HT/PER
                 (UTC) (F)     (DEG/KT/KT) (MB)    (FT/S)
CHAMBERS ISLAND  0000   40     230/  6/ 10  994.6R
NORTHPORT PIER   0000   39     230/  3/  7  994.6R
SISTER BAY       0002   39     270/ 13/ 16   N/A
KEWAUNEE LAKESHO 0000   43     280/ 11/ 20  995.0R
SHEBOYGAN LAKESH 0000   43     260/ 19/ 23  997.9R
PORT WASHINGTON  0040   44     280/  9/ 20  999.3R
MILWAUKEE LAKESH 0000   45     280/ 13/ 17   N/A
KENOSHA   LAKESH 0000   45     260/ 15/ 23 1000.3R
$$

TC  - TEMPERATURE IN CELSIUS
VSB - VISIBILITY IN STATUTE MILES
WCI - WIND CHILL INDEX
HX  - HEAT INDEX



USA.gov is the U.S. government's official web portal to all federal, state and local government web resources and services.